Satellite: NOAA-14
Catalog number: 23455
Epoch time: 08325.46162502
Element set: 396
Inclination: 098.9316 deg
RA of node: 037.6728 deg
Eccentricity: 0.0010131
Arg of perigee: 065.5200 deg
Mean anomaly: 294.7032 deg
Mean motion: 14.13753490 rev/day
Decay rate: 1.69e-06 rev/day^2
Epoch rev: 71643
Checksum: 290
Satellite: NOAA-15
Catalog number: 25338
Epoch time: 08324.98501351
Element set: 705
Inclination: 098.5696 deg
RA of node: 312.9910 deg
Eccentricity: 0.0009993
Arg of perigee: 311.9815 deg
Mean anomaly: 048.0489 deg
Mean motion: 14.24732910 rev/day
Decay rate: 1.1e-07 rev/day^2
Epoch rev: 54698
Checksum: 325
Satellite: RESURS
Catalog number: 25394
Epoch time: 08325.14862264
Element set: 74
Inclination: 098.3650 deg
RA of node: 001.8481 deg
Eccentricity: 0.0002294
Arg of perigee: 090.8308 deg
Mean anomaly: 269.3134 deg
Mean motion: 14.24175731 rev/day
Decay rate: -5.0e-08 rev/day^2
Epoch rev: 53864
Checksum: 289
Satellite: FENGYUN1
Catalog number: 25730
Epoch time: 08325.91746882
Element set: 619
Inclination: 098.7395 deg
RA of node: 296.5164 deg
Eccentricity: 0.0022048
Arg of perigee: 080.3887 deg
Mean anomaly: 279.9773 deg
Mean motion: 14.07862863 rev/day
Decay rate: 7.69e-06 rev/day^2
Epoch rev: 49101
Checksum: 356
Satellite: OKEAN-0
Catalog number: 25860
Epoch time: 08324.89126387
Element set: 528
Inclination: 097.7647 deg
RA of node: 308.6776 deg
Eccentricity: 0.0001589
Arg of perigee: 089.6507 deg
Mean anomaly: 270.4885 deg
Mean motion: 14.73545259 rev/day
Decay rate: 3.4e-07 rev/day^2
Epoch rev: 50232
Checksum: 341
Satellite: NOAA-16
Catalog number: 26536
Epoch time: 08325.75434147
Element set: 178
Inclination: 099.1705 deg
RA of node: 318.4706 deg
Eccentricity: 0.0010838
Arg of perigee: 142.8307 deg
Mean anomaly: 217.4101 deg
Mean motion: 14.12501988 rev/day
Decay rate: -1.3e-07 rev/day^2
Epoch rev: 42087
Checksum: 295
Satellite: NOAA-17
Catalog number: 27453
Epoch time: 08325.46155335
Element set: 183
Inclination: 098.5164 deg
RA of node: 025.4114 deg
Eccentricity: 0.0011856
Arg of perigee: 017.8760 deg
Mean anomaly: 342.2836 deg
Mean motion: 14.24018760 rev/day
Decay rate: -1.2e-07 rev/day^2
Epoch rev: 33304
Checksum: 280
Satellite: NOAA-18
Catalog number: 28654
Epoch time: 08325.46175690
Element set: 669
Inclination: 098.8846 deg
RA of node: 264.5740 deg
Eccentricity: 0.0013714
Arg of perigee: 230.6595 deg
Mean anomaly: 129.3356 deg
Mean motion: 14.11211931 rev/day
Decay rate: 4.17e-06 rev/day^2
Epoch rev: 18051
Checksum: 318
/EX
SB KEPS @ AMSAT $ORB08325.M
Orbital Elements 08325.MISC
HR AMSAT ORBITAL ELEMENTS FOR MANNED AND MISCELLANEOUS SATELLITES
FROM WA5QGD FORT WORTH,TX November 20, 2008
Send Subscribe/unsubscribe to KEPS at
http://www.amsat.org/mailman/listinfo/keps
BID: ORB08325.M
TO ALL RADIO AMATEURS BT
Satellite: HUBBLE
Catalog number: 20580
Epoch time: 08325.46112312
Element set: 266
Inclination: 028.4697 deg
RA of node: 023.9165 deg
Eccentricity: 0.0003980
Arg of perigee: 238.8759 deg
Mean anomaly: 121.1437 deg
Mean motion: 15.00430077 rev/day
Decay rate: 3.46e-06 rev/day^2
Epoch rev: 81847
Checksum: 287
Satellite: PO-34
Catalog number: 25520
Epoch time: 08323.11814862
Element set: 124
Inclination: 028.4607 deg
RA of node: 228.1831 deg
Eccentricity: 0.0005478
Arg of perigee: 162.7209 deg
Mean anomaly: 197.3571 deg
Mean motion: 15.17260056 rev/day
Decay rate: 4.77e-06 rev/day^2
Epoch rev: 55656
Checksum: 299
Satellite: ISS
Catalog number: 25544
Epoch time: 08325.53404133
Element set: 693
Inclination: 051.6423 deg
RA of node: 294.9402 deg
Eccentricity: 0.0003904
Arg of perigee: 007.3379 deg
Mean anomaly: 098.1514 deg
Mean motion: 15.72500280 rev/day
Decay rate: 1.0212e-04 rev/day^2
Epoch rev: 57313
Checksum: 265
Satellite: CO-58
Catalog number: 28895
Epoch time: 08325.27331935
Element set: 174
Inclination: 098.0811 deg
RA of node: 215.4350 deg
Eccentricity: 0.0016726
Arg of perigee: 282.2808 deg
Mean anomaly: 077.6525 deg
Mean motion: 14.59716271 rev/day
Decay rate: 4.7e-07 rev/day^2
Epoch rev: 16325
Checksum: 321
Satellite: FALCON
Catalog number: 30776
Epoch time: 08325.20934408
Element set: 442
Inclination: 035.4343 deg
RA of node: 287.1814 deg
Eccentricity: 0.0001686
Arg of perigee: 291.4230 deg
Mean anomaly: 068.6307 deg
Mean motion: 15.03107565 rev/day
Decay rate: 4.20e-06 rev/day^2
Epoch rev: 9363
Checksum: 275
Satellite: MAST
Catalog number: 31126
Epoch time: 08325.58346766
Element set: 465
Inclination: 098.0201 deg
RA of node: 023.6089 deg
Eccentricity: 0.0094228
Arg of perigee: 206.6322 deg
Mean anomaly: 153.0047 deg
Mean motion: 14.53459153 rev/day
Decay rate: -9.0e-08 rev/day^2
Epoch rev: 8473
Checksum: 288
Satellite: CAPE1
Catalog number: 31130
Epoch time: 08324.45036426
Element set: 457
Inclination: 098.0217 deg
RA of node: 021.1806 deg
Eccentricity: 0.0102133
Arg of perigee: 214.1688 deg
Mean anomaly: 145.2917 deg
Mean motion: 14.52010020 rev/day
Decay rate: 1.38e-06 rev/day^2
Epoch rev: 8425
Checksum: 241
Satellite: COMPASS
Catalog number: 32787
Epoch time: 08325.81571437
Element set: 205
Inclination: 097.9702 deg
RA of node: 025.1011 deg
Eccentricity: 0.0015516
Arg of perigee: 353.8718 deg
Mean anomaly: 006.2296 deg
Mean motion: 14.81501475 rev/day
Decay rate: 4.78e-06 rev/day^2
Epoch rev: 3059
Checksum: 291
Satellite: AAUSAT2
Catalog number: 32788
Epoch time: 08325.39515681
Element set: 205
Inclination: 097.9726 deg
RA of node: 024.7112 deg
Eccentricity: 0.0015308
Arg of perigee: 357.0784 deg
Mean anomaly: 003.0344 deg
Mean motion: 14.81613527 rev/day
Decay rate: 2.30e-06 rev/day^2
Epoch rev: 3053
Checksum: 278
Satellite: DO-64
Catalog number: 32789
Epoch time: 08325.81548447
Element set: 216
Inclination: 097.9749 deg
RA of node: 025.1842 deg
Eccentricity: 0.0015477
Arg of perigee: 353.2172 deg
Mean anomaly: 006.8825 deg
Mean motion: 14.81537517 rev/day
Decay rate: 6.16e-06 rev/day^2
Epoch rev: 3059
Checksum: 332
Satellite: CO-66
Catalog number: 32791
Epoch time: 08325.22788087
Element set: 199
Inclination: 097.9742 deg
RA of node: 024.5413 deg
Eccentricity: 0.0016109
Arg of perigee: 353.8736 deg
Mean anomaly: 006.2262 deg
Mean motion: 14.81347629 rev/day
Decay rate: 3.03e-06 rev/day^2
Epoch rev: 3047
Checksum: 315
Satellite: RS-30
Catalog number: 32953
Epoch time: 08324.67490779
Element set: 162
Inclination: 082.5046 deg
RA of node: 026.8958 deg
Eccentricity: 0.0017742
Arg of perigee: 275.3908 deg
Mean anomaly: 084.5155 deg
Mean motion: 12.42998160 rev/day
Decay rate: 1.0e-07 rev/day^2
Epoch rev: 2236
Checksum: 313
/EX
More information about the Keps
mailing list